IK2ILW-6 Weather Reports


time (UTC)temp
C
wind
direction
speed
KPH
gust
KPH
rain 1hr
cm
rain 24hr
cm
rain mn
cm
humidity
%
barometer
mb
20260902175627 14 360 14.5 20.9 0.00 0.00 0.00 83 1026.0
20260902174638 13 360 12.9 19.3 0.00 0.00 0.00 86 1026.0
20260902174132 13 360 6.4 12.9 0.00 0.00 0.00 86 1025.9
20260902173625 13 360 4.8 8.0 0.00 0.00 0.00 87 1025.9
20260902173141 14 360 1.6 4.8 0.00 0.00 0.00 87 1026.0
20260902172634 14 360 0.0 0.0 0.00 0.00 0.00 89 1026.0
20260902172128 14 360 0.0 0.0 0.00 0.00 0.00 90 1026.0
20260902171623 13 360 0.0 0.0 0.00 0.00 0.00 90 1026.0
20260902171136 13 360 0.0 4.8 0.00 0.00 0.00 90 1026.0
20260902170625 13 360 1.6 6.4 0.00 0.00 0.00 90 1026.0
20260902170141 13 360 3.2 6.4 0.00 0.00 0.00 90 1026.1
20260902165630 13 360 1.6 6.4 0.00 0.00 0.00 90 1026.0
20260902165123 13 360 4.8 8.0 0.00 0.00 0.00 91 1026.0
20260902164644 13 360 4.8 12.9 0.00 0.00 0.00 90 1026.0
20260902164139 14 360 6.4 12.9 0.00 0.00 0.00 90 1026.0
20260902163636 14 360 4.8 8.0 0.00 0.00 0.00 89 1026.0
20260902163129 14 360 4.8 9.7 0.00 0.00 0.00 89 1026.0
20260902162624 14 360 1.6 9.7 0.00 0.00 0.00 89 1026.1
20260902161128 15 360 4.8 9.7 0.00 0.00 0.00 88 1026.0
20260902160643 15 360 4.8 12.9 0.00 0.00 0.00 89 1026.1
20260902160137 15 360 3.2 12.9 0.00 0.00 0.00 87 1026.1
20260902155625 15 360 4.8 8.0 0.00 0.00 0.00 87 1026.1
20260902155141 15 360 3.2 12.9 0.00 0.00 0.00 86 1026.1
20260902154638 15 360 4.8 12.9 0.00 0.00 0.00 87 1026.1
20260902154131 15 360 1.6 8.0 0.00 0.00 0.00 85 1026.1
20260902153625 15 360 6.4 12.9 0.00 0.00 0.00 83 1026.1
20260902153126 16 360 6.4 12.9 0.00 0.00 0.00 82 1026.2
20260902152641 16 360 0.0 8.0 0.00 0.00 0.00 83 1026.1
20260902152139 15 360 1.6 9.7 0.00 0.00 0.00 85 1026.1
20260902151638 15 360 3.2 9.7 0.00 0.00 0.00 85 1026.2
20260902151130 15 360 1.6 9.7 0.00 0.00 0.00 84 1026.2
20260902150643 16 360 4.8 9.7 0.00 0.00 0.00 83 1026.2
20260902150141 16 360 4.8 16.1 0.00 0.00 0.00 85 1026.3
20260902145641 15 360 8.0 16.1 0.00 0.00 0.00 85 1026.4
20260902145140 16 360 1.6 12.9 0.00 0.00 0.00 83 1026.4
20260902144636 16 360 3.2 14.5 0.00 0.00 0.00 84 1026.4
20260902144141 15 360 3.2 14.5 0.00 0.00 0.00 86 1026.4
20260902143630 15 360 6.4 14.5 0.00 0.00 0.00 85 1026.4
20260902143123 15 360 8.0 14.5 0.00 0.00 0.00 85 1026.4
20260902142636 15 360 1.6 9.7 0.00 0.00 0.00 85 1026.4
20260902142127 14 360 0.0 8.0 0.00 0.00 0.00 90 1026.4
20260902141642 14 360 0.0 8.0 0.00 0.00 0.00 89 1026.5
20260902141130 14 360 4.8 6.4 0.00 0.00 0.00 89 1026.6
20260902140624 14 360 3.2 6.4 0.00 0.00 0.00 88 1026.6
20260902140123 14 360 0.0 8.0 0.00 0.00 0.00 88 1026.6
20260902135643 14 360 3.2 9.7 0.00 0.00 0.00 88 1026.6
20260902135137 15 360 4.8 9.7 0.00 0.00 0.00 87 1026.7
20260902134634 15 360 0.0 8.0 0.00 0.00 0.00 87 1026.6
20260902134124 15 360 3.2 12.9 0.00 0.00 0.00 87 1026.7
20260902133646 15 360 4.8 12.9 0.00 0.00 0.00 88 1026.8
20260902133137 15 360 4.8 14.5 0.00 0.00 0.00 87 1026.9
20260902132637 15 360 4.8 14.5 0.00 0.00 0.00 86 1026.8
20260902132131 15 360 3.2 12.9 0.00 0.00 0.00 87 1026.9
20260902131623 15 360 6.4 12.9 0.00 0.00 0.00 86 1026.9
20260902131137 15 360 3.2 9.7 0.00 0.00 0.00 87 1026.9
20260902130634 15 360 3.2 12.9 0.00 0.00 0.00 86 1026.8
20260902130127 15 360 4.8 16.1 0.00 0.00 0.00 87 1027.0
20260902125622 15 360 4.8 16.1 0.00 0.00 0.00 89 1026.9
20260902125141 14 360 4.8 19.3 0.00 0.00 0.00 89 1027.0
20260902124640 14 360 9.7 19.3 0.00 0.00 0.00 89 1027.0
20260902124139 14 360 8.0 20.9 0.00 0.00 0.00 90 1027.1
20260902123641 15 360 9.7 20.9 0.00 0.00 0.00 86 1027.2
20260902123141 15 360 9.7 19.3 0.00 0.00 0.00 87 1027.1
20260902122638 15 360 4.8 25.7 0.00 0.00 0.00 89 1027.1
20260902122134 15 360 14.5 25.7 0.00 0.00 0.00 90 1027.0
20260902121633 15 360 16.1 25.7 0.00 0.00 0.00 88 1027.0
20260902121125 15 360 4.8 22.5 0.00 0.00 0.00 86 1027.1
20260902120640 15 360 8.0 25.7 0.00 0.00 0.00 88 1027.2
20260902120137 15 360 12.9 25.7 0.00 0.00 0.00 89 1027.2
20260902115633 15 360 6.4 20.9 0.00 0.00 0.00 87 1027.2
20260902115126 15 360 4.8 20.9 0.00 0.00 0.00 85 1027.1
20260902114641 15 360 9.7 20.9 0.00 0.00 0.00 85 1027.1
20260902114143 15 360 8.0 20.9 0.00 0.00 0.00 85 1027.2
20260902113641 15 360 9.7 19.3 0.00 0.00 0.00 86 1027.2
20260902113141 14 360 6.4 19.3 0.00 0.00 0.00 87 1027.1
20260902112638 14 360 4.8 14.5 0.00 0.00 0.00 86 1027.1
20260902112142 14 360 8.0 16.1 0.00 0.00 0.00 85 1027.2
20260902111641 14 360 8.0 16.1 0.00 0.00 0.00 81 1027.2
20260902111134 14 360 4.8 14.5 0.00 0.00 0.00 82 1027.2
20260902110627 14 360 6.4 12.9 0.00 0.00 0.00 84 1027.2
20260902110123 14 360 1.6 19.3 0.00 0.00 0.00 85 1027.2
20260902105642 14 360 6.4 19.3 0.00 0.00 0.00 84 1027.3
20260902105142 13 360 6.4 19.3 0.00 0.00 0.00 86 1027.3
20260902104642 13 360 6.4 16.1 0.00 0.00 0.00 88 1027.4
20260902104140 13 360 3.2 12.9 0.00 0.00 0.00 87 1027.5
20260902103641 13 360 4.8 14.5 0.00 0.00 0.00 87 1027.5
20260902103140 13 360 8.0 16.1 0.00 0.00 0.00 87 1027.5
20260902102640 13 360 3.2 16.1 0.00 0.00 0.00 86 1027.5
20260902102137 13 360 1.6 16.1 0.00 0.00 0.00 88 1027.5
20260902101636 14 360 6.4 16.1 0.00 0.00 0.00 89 1027.4
20260902101135 13 360 4.8 16.1 0.00 0.00 0.00 89 1027.5
20260902100629 14 360 4.8 12.9 0.00 0.00 0.00 87 1027.6
20260902100123 14 360 4.8 17.7 0.00 0.00 0.00 87 1027.6
20260902095640 13 360 6.4 17.7 0.00 0.00 0.00 88 1027.5
20260902095133 13 360 6.4 14.5 0.00 0.00 0.00 89 1027.6
20260902094624 13 360 3.2 12.9 0.00 0.00 0.00 91 1027.5
20260902094139 13 360 1.6 19.3 0.00 0.00 0.00 88 1027.6
20260902093631 13 360 4.8 14.5 0.00 0.00 0.00 87 1027.6
20260902093123 13 360 3.2 12.9 0.00 0.00 0.00 89 1027.5
20260902092642 13 360 4.8 12.9 0.00 0.00 0.00 89 1027.5
20260902092137 13 360 3.2 9.7 0.00 0.00 0.00 87 1027.5
20260902091634 14 360 3.2 9.7 0.00 0.00 0.00 83 1027.5
20260902091141 14 360 4.8 9.7 0.00 0.00 0.00 79 1027.4
20260902090630 13 360 1.6 8.0 0.00 0.00 0.00 82 1027.5
20260902090135 13 360 1.6 8.0 0.00 0.00 0.00 88 1027.5
20260902085627 13 360 3.2 6.4 0.00 0.00 0.00 87 1027.5
20260902085124 13 360 0.0 8.0 0.00 0.00 0.00 87 1027.5
20260902084639 13 360 1.6 8.0 0.00 0.00 0.00 87 1027.5
20260902084138 13 360 1.6 6.4 0.00 0.00 0.00 90 1027.5
20260902083641 13 360 3.2 4.8 0.00 0.00 0.00 89 1027.5
20260902083133 13 360 0.0 4.8 0.00 0.00 0.00 91 1027.4
20260902082625 13 360 0.0 8.0 0.00 0.00 0.00 90 1027.3
20260902082141 13 360 0.0 8.0 0.00 0.00 0.00 88 1027.3
20260902081641 13 360 0.0 8.0 0.00 0.00 0.00 87 1027.3
20260902081131 13 360 0.0 6.4 0.00 0.00 0.00 80 1027.3
20260902080623 14 360 1.6 8.0 0.00 0.00 0.00 78 1027.2
20260902080142 14 360 1.6 8.0 0.00 0.00 0.00 83 1027.2
20260902075638 14 360 3.2 6.4 0.00 0.00 0.00 81 1027.1
20260902075133 13 360 0.0 6.4 0.00 0.00 0.00 78 1027.1
20260902074624 13 360 1.6 6.4 0.00 0.00 0.00 77 1027.0
20260902074144 13 360 1.6 4.8 0.00 0.00 0.00 81 1027.0
20260902073641 13 360 0.0 6.4 0.00 0.00 0.00 82 1027.1
20260902073137 13 360 1.6 6.4 0.00 0.00 0.00 82 1027.0
20260902072634 13 360 3.2 6.4 0.00 0.00 0.00 81 1026.9
20260902072128 13 360 0.0 3.2 0.00 0.00 0.00 82 1026.9
20260902071622 13 360 0.0 0.0 0.00 0.00 0.00 83 1026.9
20260902071140 13 360 0.0 3.2 0.00 0.00 0.00 81 1026.9
20260902070636 13 360 0.0 3.2 0.00 0.00 0.00 84 1026.9
20260902070130 13 360 0.0 3.2 0.00 0.00 0.00 85 1026.8
20260902065624 13 360 0.0 3.2 0.00 0.00 0.00 81 1026.8
20260902065141 12 360 0.0 3.2 0.00 0.00 0.00 81 1026.7
20260902064640 12 360 1.6 4.8 0.00 0.00 0.00 81 1026.6
20260902064136 13 360 0.0 6.4 0.00 0.00 0.00 81 1026.7
20260902063634 13 360 0.0 0.0 0.00 0.00 0.00 79 1026.7
20260902063123 12 360 0.0 14.5 0.00 0.00 0.00 82 1026.6
20260902062642 12 360 1.6 14.5 0.00 0.00 0.00 83 1026.6
20260902062137 12 360 9.7 12.9 0.00 0.00 0.00 83 1026.6
20260902061627 12 360 6.4 12.9 0.00 0.00 0.00 87 1026.6
20260902061142 11 360 6.4 12.9 0.00 0.00 0.00 89 1026.7
20260902060642 11 360 4.8 9.7 0.00 0.00 0.00 91 1026.7
20260902060136 11 360 1.6 6.4 0.00 0.00 0.00 92 1026.7
20260902055633 11 360 0.0 4.8 0.00 0.00 0.00 93 1026.7
20260902055130 11 360 0.0 8.0 0.00 0.00 0.00 93 1026.6
20260902054624 11 360 1.6 8.0 0.00 0.00 0.00 93 1026.5
20260902054142 11 360 3.2 6.4 0.00 0.00 0.00 93 1026.6
20260902053642 11 360 0.0 3.2 0.00 0.00 0.00 91 1026.5
20260902053137 11 360 0.0 6.4 0.00 0.00 0.00 91 1026.4
20260902052625 11 360 3.2 6.4 0.00 0.00 0.00 89 1026.2
20260902052143 11 360 4.8 6.4 0.00 0.00 0.00 87 1026.3
20260902051639 11 360 4.8 6.4 0.00 0.00 0.00 87 1026.2
20260902051124 11 360 0.0 6.4 0.00 0.00 0.00 90 1026.3
20260902050640 11 360 4.8 6.4 0.00 0.00 0.00 93 1026.3
20260902050133 11 360 0.0 0.0 0.00 0.00 0.00 92 1026.3
20260902045623 11 360 0.0 6.4 0.00 0.00 0.00 91 1026.3
20260902045142 11 360 0.0 6.4 0.00 0.00 0.00 90 1026.4
20260902044635 12 360 4.8 6.4 0.00 0.00 0.00 81 1026.3
20260902044127 12 360 3.2 4.8 0.00 0.00 0.00 75 1026.3
20260902043643 12 360 0.0 4.8 0.00 0.00 0.00 71 1026.3
20260902043133 12 360 3.2 6.4 0.00 0.00 0.00 73 1026.2
20260902042623 12 360 3.2 6.4 0.00 0.00 0.00 73 1026.2
20260902042137 12 360 4.8 8.0 0.00 0.00 0.00 72 1026.3
20260902041627 12 360 3.2 8.0 0.00 0.00 0.00 75 1026.2
20260902041140 12 360 4.8 8.0 0.00 0.00 0.00 73 1026.2
20260902040634 12 360 3.2 9.7 0.00 0.00 0.00 74 1026.2
20260902040124 12 360 4.8 14.5 0.00 0.00 0.00 73 1026.4
20260902035639 12 360 6.4 14.5 0.00 0.00 0.00 72 1026.4
20260902035132 12 360 6.4 14.5 0.00 0.00 0.00 72 1026.3
20260902034625 12 360 8.0 14.5 0.00 0.00 0.00 73 1026.3
20260902034146 12 360 8.0 16.1 0.00 0.00 0.00 72 1026.3
20260902033638 12 360 9.7 17.7 0.00 0.00 0.00 72 1026.2
20260902033126 12 360 9.7 17.7 0.00 0.00 0.00 72 1026.2
20260902032642 12 360 8.0 16.1 0.00 0.00 0.00 71 1026.3
20260902032138 12 360 6.4 16.1 0.00 0.00 0.00 72 1026.3
20260902031624 12 360 4.8 17.7 0.00 0.00 0.00 74 1026.4
20260902031136 12 360 8.0 17.7 0.00 0.00 0.00 71 1026.4
20260902030624 12 360 12.9 16.1 0.00 0.00 0.00 73 1026.3
20260902030138 12 360 12.9 16.1 0.00 0.00 0.00 76 1026.4
20260902025632 12 360 11.3 16.1 0.00 0.00 0.00 75 1026.4
20260902025125 12 360 6.4 19.3 0.00 0.00 0.00 73 1026.4
20260902024640 12 360 11.3 19.3 0.00 0.00 0.00 76 1026.4
20260902024127 12 360 14.5 19.3 0.00 0.00 0.00 74 1026.4
20260902023623 12 360 9.7 17.7 0.00 0.00 0.00 72 1026.4
20260902023137 12 360 12.9 17.7 0.00 0.00 0.00 75 1026.4
20260902022623 12 360 14.5 17.7 0.00 0.00 0.00 75 1026.4
20260902022138 12 360 11.3 16.1 0.00 0.00 0.00 73 1026.6
20260902021626 12 360 11.3 17.7 0.00 0.00 0.00 73 1026.5
20260902021142 12 360 11.3 19.3 0.00 0.00 0.00 74 1026.4
20260902020636 12 360 12.9 19.3 0.00 0.00 0.00 76 1026.4
20260902020124 12 360 17.7 19.3 0.00 0.00 0.00 74 1026.4
20260902015641 12 360 16.1 19.3 0.00 0.00 0.00 74 1026.4
20260902015134 12 360 16.1 19.3 0.00 0.00 0.00 75 1026.4
20260902014625 12 360 16.1 20.9 0.00 0.00 0.00 78 1026.4
20260902014145 12 360 14.5 19.3 0.00 0.00 0.00 80 1026.4
20260902013636 12 360 12.9 16.1 0.00 0.00 0.00 82 1026.5
20260902013124 12 360 12.9 16.1 0.00 0.00 0.00 85 1026.5
20260902012642 12 360 14.5 17.7 0.00 0.00 0.00 86 1026.5
20260902012134 12 360 12.9 17.7 0.00 0.00 0.00 87 1026.6
20260902011628 12 360 11.3 19.3 0.00 0.00 0.00 84 1026.6
20260902011142 12 360 16.1 19.3 0.00 0.00 0.00 82 1026.6
20260902010637 12 360 9.7 17.7 0.00 0.00 0.00 76 1026.6
20260902010131 12 360 9.7 20.9 0.00 0.00 0.00 80 1026.6
20260902005623 12 360 16.1 22.5 0.00 0.00 0.00 83 1026.6
20260902005144 12 360 16.1 24.1 0.00 0.00 0.00 84 1026.6
20260902004635 12 360 19.3 24.1 0.00 0.00 0.00 84 1026.6
20260902004127 12 360 19.3 22.5 0.00 0.00 0.00 83 1026.6
20260902003640 12 360 16.1 20.9 0.00 0.00 0.00 82 1026.6
20260902003132 12 360 14.5 19.3 0.00 0.00 0.00 83 1026.6
20260902002623 12 360 16.1 17.7 0.00 0.00 0.00 82 1026.6
20260902002135 12 360 12.9 17.7 0.00 0.00 0.00 84 1026.7
20260902001626 12 360 14.5 17.7 0.00 0.00 0.00 82 1026.7
20260902001135 12 360 12.9 16.1 0.00 0.00 0.00 82 1026.7
20260902000624 12 360 9.7 17.7 0.00 0.00 0.00 84 1026.8
20260902000139 12 360 12.9 17.7 0.00 0.00 0.00 82 1026.9
20260901235632 12 360 9.7 16.1 0.00 0.00 0.00 86 1026.8
20260901235123 12 360 9.7 16.1 0.00 0.00 0.00 84 1026.9
20260901234641 12 360 9.7 14.5 0.00 0.00 0.00 82 1026.8
20260901234137 12 360 8.0 14.5 0.00 0.00 0.00 82 1026.8
20260901233623 12 360 6.4 19.3 0.00 0.00 0.00 80 1026.9
20260901233141 12 360 14.5 22.5 0.00 0.00 0.00 83 1026.8
20260901232634 12 360 14.5 22.5 0.00 0.00 0.00 80 1026.8
20260901232125 12 360 16.1 22.5 0.00 0.00 0.00 82 1026.8
20260901231642 12 360 14.5 22.5 0.00 0.00 0.00 80 1026.8
20260901231125 12 360 12.9 19.3 0.00 0.00 0.00 84 1027.0
20260901230640 12 360 12.9 24.1 0.00 0.00 0.00 85 1027.1
20260901230132 12 360 12.9 25.7 0.00 0.00 0.00 86 1027.0
20260901225624 12 360 19.3 25.7 0.00 0.00 0.00 85 1026.9
20260901225142 12 360 16.1 22.5 0.00 0.00 0.00 84 1026.9
20260901224632 12 360 16.1 22.5 0.00 0.00 0.00 81 1026.9
20260901224124 12 360 17.7 22.5 0.00 0.00 0.00 81 1026.9
20260901223640 12 360 19.3 22.5 0.00 0.00 0.00 83 1026.9
20260901223134 12 360 19.3 25.7 0.00 0.00 0.00 84 1026.9
20260901222627 12 360 19.3 25.7 0.00 0.00 0.00 86 1026.9
20260901222144 12 360 17.7 22.5 0.00 0.00 0.00 86 1026.9
20260901221637 12 360 14.5 19.3 0.00 0.00 0.00 88 1027.1
20260901221124 12 360 12.9 17.7 0.00 0.00 0.00 88 1027.1
20260901220640 12 360 9.7 12.9 0.00 0.00 0.00 89 1027.2
20260901220130 12 360 6.4 9.7 0.00 0.00 0.00 90 1027.3
20260901215624 12 360 0.0 4.8 0.00 0.00 0.00 92 1027.3
20260901215141 12 360 1.6 4.8 0.00 0.00 0.00 94 1027.3
20260901214643 12 360 0.0 6.4 0.00 0.00 0.00 95 1027.3
20260901214124 12 360 1.6 6.4 0.00 0.00 0.00 95 1027.3
20260901213645 12 360 0.0 0.0 0.00 0.00 0.00 95 1027.3
20260901213141 12 360 0.0 0.0 0.00 0.00 0.00 95 1027.2
20260901212640 12 360 0.0 8.0 0.00 0.00 0.00 95 1027.2
20260901212139 12 360 1.6 8.0 0.00 0.00 0.00 95 1027.2
20260901211628 12 360 0.0 8.0 0.00 0.00 0.00 95 1027.3
20260901211135 12 360 0.0 8.0 0.00 0.00 0.00 96 1027.3
20260901210625 12 360 0.0 6.4 0.00 0.00 0.00 96 1027.3
20260901210146 12 360 0.0 6.4 0.00 0.00 0.00 95 1027.3
20260901205646 12 360 1.6 6.4 0.00 0.00 0.00 95 1027.3
20260901205141 12 360 0.0 6.4 0.00 0.00 0.00 95 1027.3
20260901204640 12 360 1.6 8.0 0.00 0.00 0.00 95 1027.3
20260901204128 12 360 4.8 9.7 0.00 0.00 0.00 95 1027.3
20260901203625 12 360 1.6 9.7 0.00 0.00 0.00 94 1027.3
20260901203143 12 360 0.0 8.0 0.00 0.00 0.00 94 1027.3
20260901202636 12 360 4.8 8.0 0.00 0.00 0.00 93 1027.2
20260901202132 12 360 3.2 6.4 0.00 0.00 0.00 93 1027.2
20260901201625 12 360 0.0 6.4 0.00 0.00 0.00 94 1027.2
20260901201135 12 360 3.2 8.0 0.00 0.00 0.00 94 1027.2
20260901200626 12 360 1.6 8.0 0.00 0.00 0.00 95 1027.3
20260901200142 12 360 1.6 4.8 0.00 0.00 0.00 95 1027.2
20260901195644 12 360 0.0 1.6 0.00 0.00 0.00 95 1027.3
20260901195139 12 360 0.0 3.2 0.00 0.00 0.00 94 1027.2
20260901194634 12 360 0.0 4.8 0.00 0.00 0.00 94 1027.1
20260901194126 12 360 0.0 4.8 0.00 0.00 0.00 94 1027.0
20260901193644 12 360 0.0 0.0 0.00 0.00 0.00 94 1027.0
20260901193144 12 360 0.0 0.0 0.00 0.00 0.00 93 1027.0
20260901192641 12 360 0.0 0.0 0.00 0.00 0.00 93 1026.9
20260901192137 12 360 0.0 0.0 0.00 0.00 0.00 92 1027.0
20260901191627 12 360 0.0 0.0 0.00 0.00 0.00 90 1026.9
20260901191139 12 360 0.0 0.0 0.00 0.00 0.00 90 1026.9
20260901190637 12 360 0.0 0.0 0.00 0.00 0.00 90 1026.7
20260901190126 12 360 0.0 0.0 0.00 0.00 0.00 89 1026.7
20260901185644 12 360 0.0 0.0 0.00 0.00 0.00 90 1026.6
20260901185139 12 360 0.0 0.0 0.00 0.00 0.00 92 1026.6
20260901184640 12 360 0.0 0.0 0.00 0.00 0.00 94 1026.6
20260901184135 12 360 0.0 0.0 0.00 0.00 0.00 94 1026.6
20260901183628 12 360 0.0 0.0 0.00 0.00 0.00 95 1026.6
20260901183124 12 360 0.0 0.0 0.00 0.00 0.00 95 1026.6
20260901182642 12 360 0.0 0.0 0.00 0.00 0.00 95 1026.5
20260901182139 12 360 0.0 0.0 0.00 0.00 0.00 96 1026.5
20260901181627 12 360 0.0 0.0 0.00 0.00 0.00 95 1026.4
20260901181135 12 360 0.0 0.0 0.00 0.00 0.00 95 1026.4
20260901180632 12 360 0.0 0.0 0.00 0.00 0.00 95 1026.4
20260901180123 12 360 0.0 0.0 0.00 0.00 0.00 95 1026.3